Location: ??
(34.7252°N, 135.5457°E)
Time: 09:02:25
(UTC+00:00)

Cosmos 2263 Rocket - Pass Details

Date: 24 September 2020
Orbit: 822 x 849 km, 71.0° (Epoch: 23 October)

Event Time Altitude Azimuth Distance (km) Brightness Sun altitude
Rises 18:15:29 0° 339° (NNW) 3,402 5.4 -31.4°
Enters shadow 18:17:46 - 340° (NNW) 2,526 4.7 -30.9°
Exits shadow 18:27:30 21° 158° (SSE) 1,802 3.9 -29.1°
Drops below altitude 10° 18:29:17 10° 159° (SSE) 2,464 4.6 -28.7°
Sets 18:31:44 0° 159° (SSE) 3,397 5.4 -28.3°
